Wind_Speed
11 11 12 12 12 12 13 13 13 13 13 13 13 13 13 14 14 14 14 14 14 15 15 12 9 8 7 6 8 9 9 9 10 10 9 9 10 9 10 11 11 9 6 5 1 4 5 7 9 10 6 3 3 3 4 3 2 1 2 3 4 5 5 1 2 2 1 0 2 5 5 4 3 3 2 2 3 5 4 6 5 6 4 4 9 16 23 25
10 11 11 12 12 13 13 13 13 14 14 14 14 14 14 13 14 14 14 14 14 15 16 14 10 9 8 7 7 8 8 9 12 13 15 16 14 13 13 12 12 10 6 4 2 5 6 5 7 9 5 2 4 3 3 3 2 3 3 3 5 5 4 1 3 3 2 3 2 3 6 5 4 5 3 1 5 6 7 8 6 9 6 7 11 18 23 24
11 11 12 12 13 13 14 14 14 14 14 14 14 14 14 14 14 14 14 14 14 15 16 15 11 9 9 7 6 6 6 8 10 11 15 19 18 17 13 11 10 8 7 5 4 6 7 8 6 4 4 3 4 4 3 2 2 4 3 3 6 4 4 3 3 3 2 4 4 3 3 4 5 2 4 3 6 7 10 9 7 11 10 9 10 16 21 21
11 11 12 13 13 14 14 15 15 15 15 15 15 15 15 15 15 14 14 14 14 14 15 16 12 9 8 7 5 5 4 5 5 4 10 16 17 17 13 10 8 7 7 6 5 6 7 9 8 5 4 4 4 4 3 3 3 3 4 5 7 3 3 4 4 4 4 5 3 6 1 2 5 2 4 4 6 8 10 10 11 13 14 12 11 15 19 19
11 12 13 13 14 14 15 15 16 16 16 15 15 15 15 15 15 15 15 15 15 14 15 16 14 9 7 6 4 3 2 2 2 0 5 12 15 15 13 10 8 6 7 5 5 5 7 8 6 4 3 4 5 4 4 6 4 2 5 7 9 7 5 2 4 4 4 3 1 5 5 3 3 4 6 6 8 9 6 6 8 10 12 13 15 15 16 16
12 12 13 14 14 15 16 16 17 17 17 16 16 16 15 15 15 15 15 15 15 15 15 15 14 10 6 4 1 2 2 2 0 2 2 7 11 12 10 9 7 6 6 4 5 5 6 6 5 3 3 4 6 6 6 6 5 3 6 8 10 10 7 3 2 2 1 1 4 4 4 2 2 5 6 9 15 13 6 3 1 1 1 9 17 15 14 15
13 13 13 14 15 15 16 17 18 18 18 18 17 17 16 15 15 15 15 15 15 15 15 15 12 9 5 2 1 2 4 4 2 1 3 7 10 10 9 7 6 6 6 5 6 6 5 5 5 4 4 5 6 7 4 3 5 4 6 8 10 8 7 6 0 4 3 5 6 2 3 2 6 6 4 12 18 14 10 8 2 4 6 9 14 13 14 16
14 14 14 14 15 15 16 17 18 18 19 19 18 18 17 16 15 15 15 15 15 16 16 14 10 6 2 2 1 3 5 5 4 3 5 8 10 9 8 6 5 6 6 7 7 5 4 5 7 4 4 5 4 4 2 2 4 7 8 9 7 4 5 6 3 5 6 6 5 3 4 7 9 5 7 18 17 11 10 10 7 5 6 8 11 13 13 14
16 16 15 16 16 16 16 17 17 18 19 19 19 18 18 16 16 16 15 15 15 16 16 13 7 5 3 2 2 4 3 5 6 6 6 8 10 9 7 6 6 6 5 7 8 7 4 3 5 2 3 4 5 6 2 1 4 4 6 7 6 6 6 7 7 7 7 5 4 5 10 10 8 4 10 21 18 12 10 10 9 7 7 8 10 12 13 13
18 18 17 16 17 17 17 17 18 18 18 19 19 19 18 17 16 16 15 15 15 16 15 11 6 4 4 3 3 4 3 3 5 5 6 7 8 8 8 7 7 7 7 7 9 8 4 2 2 3 3 4 6 7 2 2 2 1 4 7 8 11 10 8 10 9 7 6 7 9 10 10 5 3 10 16 11 9 11 11 11 9 9 10 9 10 12 13
21 20 19 18 18 18 18 18 18 19 19 19 19 19 18 17 17 16 16 15 15 16 13 8 5 4 4 3 4 4 4 4 4 4 5 6 7 8 9 9 9 9 9 9 10 10 6 3 0 2 0 1 4 5 3 0 3 4 5 8 10 11 12 12 13 11 7 6 9 9 8 8 3 4 14 16 4 3 9 11 11 11 11 10 10 10 9 11
21 21 21 21 21 20 20 19 19 20 20 20 20 20 19 17 16 17 17 15 15 14 9 5 4 4 4 4 7 8 7 5 4 4 5 6 7 9 9 9 9 10 9 7 8 10 7 3 2 3 3 1 4 5 2 2 4 4 3 7 13 12 12 15 14 12 8 5 7 7 4 8 9 12 19 19 9 5 7 9 10 11 11 10 10 10 9 10
21 20 21 23 23 22 22 21 20 21 22 22 22 22 20 18 16 16 16 15 14 12 7 4 4 5 3 3 7 13 13 9 6 5 6 6 6 7 8 9 9 11 10 7 4 6 8 5 4 5 3 2 4 2 1 1 2 5 3 5 10 9 10 14 13 11 9 5 8 8 3 7 11 17 19 17 12 9 9 9 9 9 9 9 8 9 10 11
20 21 22 24 24 24 23 22 22 22 23 23 23 23 22 19 17 15 15 14 13 10 6 3 4 4 3 4 7 11 13 10 7 6 7 6 4 4 5 6 7 8 9 8 5 5 7 5 3 4 2 2 2 3 4 4 3 4 5 5 5 4 7 8 4 9 9 4 9 8 5 7 9 13 16 16 11 10 11 11 10 9 8 8 9 10 11 11
21 22 23 25 26 26 24 23 22 23 23 24 24 24 23 20 17 15 14 14 11 8 4 4 7 4 2 6 6 6 9 8 7 8 8 7 5 3 4 4 4 4 5 5 5 5 5 4 2 2 1 1 1 2 4 5 4 3 2 4 5 4 7 7 2 12 10 3 7 8 4 8 10 13 10 10 10 11 11 11 9 10 10 10 10 11 12 11
21 22 24 26 27 25 24 23 22 23 24 24 25 24 22 19 16 15 14 12 8 5 4 4 8 7 3 4 3 3 6 6 7 10 9 10 8 4 5 5 2 3 2 3 3 3 4 3 1 1 1 1 2 4 3 5 5 4 5 6 6 5 8 6 2 8 8 5 7 10 5 6 8 10 4 2 9 11 10 10 10 11 11 12 11 10 11 10
21 22 24 26 25 24 23 23 22 22 23 24 25 24 20 17 16 16 13 8 5 5 7 3 5 7 2 3 3 3 4 6 8 10 10 12 10 5 7 5 4 4 2 2 2 2 3 3 1 0 2 4 4 4 3 5 6 4 5 5 7 8 8 5 2 4 6 7 7 11 9 11 10 8 5 2 7 9 9 10 10 10 10 11 11 10 10 10
21 21 24 25 23 22 22 21 20 21 23 24 24 22 19 16 14 13 7 5 3 4 5 4 2 4 4 5 4 2 5 7 9 9 9 12 11 8 7 3 3 5 4 3 3 3 3 3 2 1 3 4 5 5 5 7 7 5 6 5 6 7 7 9 5 2 8 6 6 8 10 16 15 11 11 11 9 9 10 10 11 12 12 14 13 12 10 10
19 20 23 23 20 21 22 20 19 20 22 24 21 17 15 11 7 5 5 7 5 3 4 4 6 4 1 4 5 4 6 7 8 7 8 10 9 8 6 3 2 4 3 2 4 6 4 2 3 3 6 7 8 9 10 11 10 10 10 7 7 7 8 13 9 4 9 6 7 11 11 16 16 12 12 14 12 12 12 10 11 12 13 14 13 12 10 11
18 19 22 20 18 21 22 20 19 19 21 22 20 14 8 5 3 2 4 6 7 7 6 5 11 7 2 4 6 7 6 7 6 6 10 11 10 7 5 4 2 2 4 4 5 4 3 4 5 7 11 10 9 12 14 14 13 12 11 9 8 8 10 14 10 4 9 6 8 12 13 15 16 13 12 12 12 13 13 11 12 12 13 14 14 12 12 13
17 18 19 18 18 20 21 21 20 19 18 16 14 9 3 2 3 2 0 7 13 15 13 8 11 10 5 5 10 10 5 4 5 7 13 13 10 8 5 6 4 3 6 7 4 1 1 6 9 14 16 11 9 11 11 11 12 11 9 7 8 8 10 14 9 4 6 4 7 10 10 14 15 13 11 11 12 14 14 14 15 15 15 15 15 14 12 7
16 16 16 17 17 19 21 22 22 18 14 10 8 6 3 5 3 1 1 6 10 15 15 10 9 8 4 5 11 10 3 4 6 6 13 13 9 7 6 7 7 6 6 6 4 2 4 9 14 16 14 11 11 10 8 9 10 9 7 5 7 8 10 12 6 2 3 2 5 8 9 12 14 13 13 13 15 15 15 16 17 16 16 15 14 13 10 4
15 14 15 15 17 19 20 23 22 14 9 8 7 7 6 6 2 1 1 5 7 10 12 11 12 10 8 5 8 10 4 8 9 8 17 16 7 6 5 8 9 8 6 8 9 7 7 9 14 16 13 13 14 10 7 7 7 7 6 6 8 9 8 7 4 2 3 5 5 7 8 10 13 13 14 17 18 17 16 16 16 15 15 16 15 12 8 7
14 14 13 13 16 17 19 23 17 9 8 9 8 8 8 5 2 3 1 4 6 8 9 11 11 10 12 8 9 13 9 9 7 7 20 19 7 4 5 8 9 8 7 11 13 14 14 7 6 11 12 13 13 9 7 6 7 8 7 8 10 11 11 10 6 2 4 5 3 5 8 9 10 12 13 12 14 14 13 12 13 13 16 16 13 11 8 8
14 13 12 12 13 16 20 18 10 11 14 10 6 7 7 4 1 3 2 4 6 3 2 5 4 6 11 8 11 11 4 7 5 3 17 18 8 5 4 5 6 8 10 13 14 14 16 8 5 7 7 8 9 8 7 6 8 9 7 11 15 14 13 12 8 5 3 4 1 2 7 8 7 10 11 5 6 9 8 10 12 12 16 15 10 10 8 8
15 14 12 11 12 16 16 8 7 16 14 6 5 8 7 3 2 3 2 3 6 1 2 3 4 6 9 6 8 6 2 5 1 5 14 13 6 4 3 4 4 8 9 9 9 8 7 5 6 9 8 7 7 7 7 8 7 9 4 6 10 10 9 9 6 2 1 5 2 3 3 9 7 7 9 6 5 8 7 9 12 11 13 13 11 10 7 8
16 14 13 11 11 12 9 5 12 16 7 3 9 10 8 6 4 4 1 4 7 3 4 2 1 3 5 3 5 6 0 2 4 4 6 5 3 2 4 6 5 6 4 1 5 4 3 4 4 6 7 6 7 8 7 9 7 7 2 1 1 3 5 4 3 4 3 4 3 5 4 9 13 6 9 10 8 8 8 9 12 12 12 12 13 11 6 9
17 16 13 11 10 9 7 9 13 9 4 8 13 11 10 7 5 4 1 5 4 4 3 2 1 2 2 2 2 4 1 1 3 1 2 1 2 2 6 11 8 6 5 4 7 3 2 6 7 8 7 6 7 6 4 8 7 4 1 1 3 1 1 1 2 4 3 4 4 5 7 6 15 6 7 10 10 10 11 12 13 13 12 12 12 12 8 9
18 17 15 13 12 11 10 11 10 7 9 12 12 11 10 6 4 2 2 5 2 3 1 2 2 1 3 1 3 2 1 1 1 1 1 0 2 0 4 7 7 8 5 7 11 6 1 4 5 6 7 7 6 1 2 4 6 4 2 3 4 2 1 2 3 2 2 5 6 6 7 4 15 7 6 7 8 10 11 11 12 13 13 11 9 11 9 8
20 18 16 14 12 10 9 11 12 12 13 11 10 10 8 4 1 1 6 6 0 2 1 2 1 3 7 5 3 5 4 0 2 2 1 1 1 1 2 2 2 5 5 5 9 8 1 2 1 2 4 4 4 4 2 1 2 3 3 2 2 1 1 1 2 1 1 9 7 10 13 9 10 5 7 7 7 10 10 8 9 10 12 11 8 9 9 7
22 20 18 18 16 11 5 5 9 9 9 9 8 6 4 2 0 4 8 3 1 1 3 2 3 7 10 8 5 6 6 3 3 5 3 2 2 1 2 1 1 1 3 5 8 8 4 2 1 1 0 4 6 3 1 2 1 3 4 2 1 3 2 2 1 3 2 10 5 11 15 13 11 5 3 5 7 10 10 9 10 11 11 11 8 8 7 7
26 24 22 23 22 17 9 5 5 4 5 5 4 2 1 1 3 9 7 2 1 4 4 4 5 6 8 9 5 6 7 4 5 7 5 4 4 5 6 5 5 2 3 5 5 5 6 8 7 1 1 5 6 2 2 3 1 3 5 4 1 3 2 1 2 2 5 10 5 11 12 11 13 9 4 6 6 9 10 9 11 11 10 9 7 6 6 7
28 26 26 27 26 25 20 14 8 4 3 2 4 2 1 2 7 9 6 2 1 1 2 3 7 7 7 6 4 5 5 3 6 7 5 6 5 6 8 8 5 3 4 4 2 1 3 6 6 4 3 5 9 6 3 2 4 7 6 6 5 4 3 4 4 3 7 9 5 7 9 6 9 6 10 13 11 11 11 10 10 9 10 9 6 7 6 7
31 29 29 30 30 30 26 20 15 10 4 4 5 3 0 6 8 2 4 6 4 1 2 3 6 8 6 5 4 6 5 3 7 7 5 6 4 5 7 9 10 6 2 1 2 3 4 7 6 9 3 8 13 13 10 4 5 9 6 5 6 5 3 4 5 7 8 6 4 3 5 4 4 2 11 16 15 14 11 10 9 9 9 6 5 7 6 7
31 31 32 31 30 31 28 23 19 14 9 6 4 4 4 8 7 2 3 6 4 2 0 2 3 6 6 5 3 6 6 4 6 7 5 6 6 6 6 8 13 10 2 2 3 4 5 10 8 9 3 10 14 12 9 5 1 6 4 3 6 5 4 5 7 9 5 5 5 4 4 6 5 6 9 11 11 12 11 10 10 10 9 6 6 6 7 7
26 28 28 28 28 29 30 29 25 20 15 7 3 4 7 9 6 3 3 3 3 2 2 1 2 4 5 4 3 6 5 2 5 6 4 7 7 7 6 5 12 14 9 7 4 3 4 7 5 6 1 5 7 5 6 5 2 2 4 5 6 3 5 6 8 7 3 5 9 6 6 8 8 11 12 12 12 10 9 10 11 12 12 8 7 7 7 7
17 18 18 23 27 27 30 33 30 24 14 7 6 7 8 8 7 6 3 3 4 3 1 4 4 5 6 4 4 7 4 1 5 5 3 5 6 8 9 6 10 17 17 11 4 3 6 6 4 5 1 2 2 4 2 2 2 5 3 5 2 2 1 3 2 3 3 7 9 8 12 11 9 10 4 6 12 12 10 12 14 15 12 8 8 8 8 8
8 9 11 21 28 26 29 34 32 22 9 4 8 10 7 5 5 7 7 7 6 5 4 6 5 6 7 6 5 7 8 5 5 5 4 4 4 8 11 7 8 16 19 14 6 4 4 5 5 2 1 2 2 3 3 3 2 5 2 2 2 0 2 2 2 2 5 7 7 10 14 12 12 12 7 3 10 13 13 15 15 14 10 7 8 9 8 7
5 3 6 11 15 21 30 34 26 13 4 6 9 9 6 5 5 4 7 9 7 6 7 8 6 6 7 8 6 4 8 9 7 6 5 5 5 7 11 8 7 13 18 16 9 5 3 4 6 1 2 1 2 1 4 2 1 1 3 4 1 2 3 3 3 3 5 7 8 10 13 12 10 8 8 8 11 12 13 13 12 11 9 8 8 8 8 6
2 3 3 2 5 20 32 28 15 6 4 6 7 8 5 4 5 5 8 9 6 4 6 8 8 8 8 9 9 7 7 9 7 6 6 6 6 6 8 8 6 8 14 14 11 6 2 5 6 1 3 1 1 4 7 7 5 3 1 3 3 2 1 1 3 3 5 6 7 7 10 13 7 2 3 7 10 12 12 10 9 8 8 8 8 8 8 8
2 3 3 3 13 27 27 15 5 4 3 3 5 8 6 4 4 6 9 8 6 2 0 4 7 6 6 6 8 8 5 6 7 6 5 5 7 5 4 8 7 5 6 6 7 7 4 5 7 2 2 5 5 6 9 11 9 7 7 8 8 7 4 3 7 7 5 5 6 6 9 14 7 4 3 5 9 10 10 8 7 7 8 8 8 9 9 8
4 4 2 10 24 30 20 4 3 4 2 4 4 4 4 3 4 7 8 9 9 5 0 2 5 5 4 4 6 6 4 3 3 4 5 5 8 5 1 5 6 5 6 5 7 8 4 3 6 7 6 7 6 3 5 7 6 4 5 7 8 8 7 8 10 7 4 4 6 6 10 16 8 4 5 3 6 6 7 6 5 6 8 9 8 9 9 9
4 3 3 15 29 27 11 2 4 4 4 3 4 6 5 4 4 6 7 7 7 5 3 3 5 7 7 4 5 5 4 4 5 8 9 7 7 7 7 6 6 4 1 2 3 3 3 3 5 7 5 5 8 7 2 1 0 3 5 5 6 7 8 10 8 5 6 6 6 8 11 14 10 1 4 5 4 4 5 4 6 7 7 8 9 9 9 9
3 2 2 16 32 25 7 4 6 6 7 5 7 9 8 6 7 9 10 9 7 4 4 6 6 7 6 3 4 5 3 3 6 9 10 8 9 11 12 12 10 6 4 2 2 1 1 1 3 4 4 4 7 9 7 2 1 3 6 7 9 9 9 9 5 3 7 9 12 13 11 11 11 5 6 8 9 10 10 7 7 7 7 7 8 8 8 10
2 2 1 11 24 18 5 5 7 7 9 11 13 14 12 8 8 14 17 14 11 7 5 5 4 5 6 4 6 8 9 8 6 5 5 6 9 10 12 13 9 5 7 4 4 1 3 3 2 3 7 7 7 8 6 2 2 2 5 9 12 12 11 9 7 6 9 12 15 15 11 12 15 13 13 15 14 14 15 13 9 7 8 9 8 8 10 10
2 3 1 4 10 8 4 3 5 7 9 11 11 11 15 13 9 13 17 14 13 13 11 6 2 2 4 7 9 10 11 11 9 5 4 5 6 6 8 10 7 9 10 3 2 2 2 4 6 8 10 11 11 13 10 6 5 5 7 10 11 11 12 11 8 9 11 12 14 15 14 16 18 20 23 24 21 18 17 16 14 11 11 10 9 10 10 10
2 3 3 2 3 5 6 5 5 5 7 9 6 5 13 17 11 9 11 10 11 13 11 8 7 7 7 9 10 11 11 12 12 10 9 9 9 8 8 7 7 10 9 4 4 4 2 5 11 14 17 17 17 19 19 16 16 15 16 16 13 11 13 12 12 14 14 14 14 14 15 19 18 19 25 26 23 18 15 16 17 16 15 11 8 9 10 10
3 3 2 1 1 4 5 7 7 7 7 8 6 6 13 17 13 9 8 9 11 11 7 6 11 16 16 14 12 10 10 11 11 12 12 12 12 11 9 8 11 13 11 6 4 4 3 8 12 15 20 22 22 23 24 22 20 20 20 21 21 19 17 17 20 23 20 17 16 14 18 23 21 19 23 23 20 18 17 19 21 19 18 16 11 9 10 10
3 3 3 3 3 4 4 4 4 7 9 8 6 7 11 15 16 14 9 7 8 9 10 10 12 16 19 20 17 12 11 12 12 11 11 12 13 10 8 9 12 13 13 10 5 5 5 7 11 16 19 21 22 23 24 24 22 22 22 22 22 22 21 21 24 26 24 22 20 21 26 26 21 19 21 19 17 17 19 21 22 22 21 21 17 12 10 10
2 1 2 4 4 4 6 5 4 5 6 7 6 6 9 12 15 13 9 9 9 7 12 18 19 18 19 20 19 17 16 17 18 16 13 12 11 8 7 9 10 8 8 9 6 5 7 9 12 14 13 15 19 21 23 24 23 24 24 21 19 20 22 23 22 19 18 20 22 24 24 21 18 19 19 17 16 17 20 24 25 23 21 21 20 14 9 9
3 3 2 3 4 4 6 6 5 5 5 5 6 6 9 12 14 13 11 12 14 11 10 16 18 16 16 18 19 20 20 21 23 23 20 17 12 9 7 8 10 8 5 6 6 6 8 9 8 9 10 11 15 19 23 23 22 23 22 19 20 22 23 22 20 18 17 19 22 21 17 15 16 16 15 16 17 19 23 26 25 22 20 21 21 16 10 10
5 3 1 2 3 4 6 6 5 7 6 5 6 7 10 11 12 13 12 9 13 17 16 17 17 13 13 17 19 19 18 19 19 18 17 17 16 16 12 8 10 9 5 6 6 5 7 7 6 8 10 10 12 17 19 17 15 14 15 20 27 27 25 23 21 21 23 20 17 16 15 16 15 12 12 16 20 22 24 24 22 21 20 21 20 16 13 13
Wind_Direction
12 11 10 11 11 11 11 11 12 14 15 15 17 15 15 14 10 6 3 3 2 360 357 350 341 337 323 289 271 266 274 284 292 282 252 256 261 255 261 262 272 279 279 297 228 208 220 204 214 211 202 170 193 213 152 172 186 179 205 226 247 248 253 283 320 357 77 5 129 178 190 217 221 167 153 100 236 243 229 233 214 213 215 122 128 140 143 151
2 1 359 359 0 1 1 2 3 4 7 8 9 9 9 8 6 3 359 357 356 355 354 351 343 336 332 311 286 270 272 277 276 267 254 256 258 255 262 263 263 266 271 280 236 237 241 234 215 189 188 201 189 169 145 168 156 202 238 251 244 260 265 258 332 353 25 326 326 170 186 222 224 168 141 182 228 214 231 242 217 223 206 129 137 144 147 154
350 350 349 349 350 351 351 352 353 355 357 359 1 1 2 1 2 1 356 354 351 350 350 349 345 337 333 321 304 277 272 284 275 261 249 245 241 242 251 252 247 251 256 253 260 275 285 300 295 224 205 232 203 168 175 175 157 214 226 257 252 279 313 307 337 347 4 354 319 280 181 194 242 179 122 219 249 224 226 230 209 223 217 176 160 153 154 161
342 341 341 341 341 341 342 343 343 345 347 349 352 354 355 355 355 356 355 352 348 347 346 346 344 338 334 329 312 272 273 290 273 233 227 224 221 225 229 234 234 238 244 246 268 279 288 294 292 272 236 250 231 185 184 177 165 218 194 233 262 284 318 327 21 22 21 36 324 296 309 200 246 224 157 201 255 246 232 227 215 218 218 193 167 165 166 169
335 335 335 334 333 334 334 335 335 336 338 340 343 346 349 350 349 350 351 350 347 344 342 341 337 333 334 331 305 265 287 284 266 350 225 210 206 208 209 218 221 227 232 234 261 264 270 269 263 260 241 260 249 204 214 200 176 259 232 242 264 270 278 311 62 44 35 55 308 281 272 253 224 217 205 203 233 241 225 225 227 221 222 195 171 173 174 176
330 330 330 329 328 329 328 328 328 329 330 332 334 338 341 344 344 344 347 347 344 342 340 336 330 327 331 333 303 226 256 272 40 50 221 199 198 198 195 206 212 216 215 218 255 258 256 254 242 239 233 250 252 242 236 193 164 240 252 248 262 270 272 265 104 98 82 215 235 246 277 296 226 242 233 220 233 240 236 252 259 100 219 172 167 171 176 186
327 327 326 325 324 324 324 324 323 323 324 326 328 331 335 338 339 339 343 343 341 340 338 333 323 317 328 28 86 198 239 273 292 162 176 181 191 195 194 199 202 200 191 207 236 243 249 253 247 247 245 249 258 261 258 139 157 227 260 261 272 284 278 278 223 149 185 230 239 261 1 282 233 244 253 240 240 239 245 259 232 110 90 125 155 174 183 191
325 325 324 323 321 321 321 320 319 319 320 321 323 326 330 334 334 335 338 340 339 338 338 333 319 307 307 127 214 251 238 250 245 209 184 186 190 193 197 195 198 191 185 214 233 259 278 265 260 265 265 266 311 315 352 108 199 224 251 259 267 283 270 271 243 183 202 228 241 270 273 246 237 255 273 257 253 243 237 244 228 168 137 140 162 183 190 196
324 324 323 321 319 318 317 316 316 315 316 317 319 321 325 329 331 332 334 337 337 337 338 331 313 288 250 194 263 275 244 230 224 215 203 201 200 198 197 193 195 188 194 221 233 256 266 269 273 307 317 295 308 305 313 207 232 222 258 282 293 291 283 269 248 218 211 221 206 232 251 249 244 265 270 259 255 251 240 237 229 193 178 185 181 186 193 200
325 324 323 321 320 317 316 315 313 312 312 312 313 317 320 324 326 327 330 334 335 336 335 324 300 268 234 209 248 261 251 238 223 223 224 217 210 204 201 199 192 191 215 221 216 232 237 293 311 65 15 301 288 285 234 196 266 314 298 303 296 286 283 269 260 241 217 219 198 208 245 254 235 198 253 258 253 236 230 234 231 212 208 209 201 197 195 202
328 327 325 325 323 319 317 315 314 312 309 309 309 310 313 317 320 321 324 328 332 335 334 323 288 246 226 224 243 244 238 235 226 218 220 218 209 204 207 209 200 199 221 226 216 228 254 295 346 105 56 295 313 289 219 193 334 330 326 308 284 275 270 253 251 244 220 221 200 196 251 266 222 193 243 252 249 190 212 225 228 220 223 215 210 211 200 206
329 329 328 328 325 323 320 318 317 314 311 310 307 306 307 310 313 314 317 321 328 333 331 318 273 223 224 246 241 237 237 226 224 224 216 215 211 209 215 216 211 207 222 247 229 219 237 257 181 218 247 261 318 295 247 10 336 302 331 302 283 280 270 254 245 228 205 207 176 159 271 265 225 222 241 249 241 212 217 226 224 219 225 219 213 216 211 213
328 329 329 328 325 324 322 321 320 317 314 311 308 306 305 305 307 307 310 313 319 328 322 292 243 212 222 262 235 229 235 233 230 235 225 225 217 216 224 223 223 218 225 259 258 202 211 210 194 233 268 274 278 302 288 278 260 266 255 258 280 293 272 256 245 210 184 178 149 140 259 253 234 230 234 247 240 213 222 231 226 221 224 221 217 220 221 215
325 325 326 326 325 324 323 322 322 320 316 312 308 306 305 306 304 299 300 304 310 314 304 255 211 197 213 257 247 231 232 235 230 230 226 211 194 217 227 222 229 227 229 247 255 214 203 192 201 254 280 235 261 350 313 267 222 255 270 254 258 280 274 273 245 170 163 168 152 150 247 251 262 252 231 237 229 195 214 226 221 221 221 225 223 224 226 215
320 320 324 324 322 322 322 322 323 322 318 315 310 308 310 309 302 294 291 291 295 291 269 212 195 184 269 259 251 238 230 232 220 213 217 190 177 214 202 194 213 212 220 235 231 209 186 175 199 256 262 158 299 310 288 272 242 219 251 268 234 221 266 280 155 160 167 177 172 162 241 251 256 265 252 230 205 184 210 223 218 221 222 227 229 227 227 223
314 317 321 321 321 322 321 321 324 322 319 317 313 314 314 310 298 286 284 280 277 250 196 191 197 195 291 264 216 236 219 215 205 203 212 192 179 184 164 165 177 175 202 218 208 183 170 188 229 260 224 182 196 221 255 277 263 213 195 245 243 233 266 270 183 188 171 126 189 197 231 259 236 246 275 173 184 188 210 223 219 222 224 229 235 233 225 225
309 314 318 319 323 327 323 322 324 322 321 319 316 318 317 310 290 279 281 267 243 199 187 214 195 188 247 243 225 250 184 183 195 198 211 196 179 164 159 166 172 165 169 179 182 181 184 194 160 96 224 220 214 208 235 259 259 239 211 236 243 238 258 261 277 245 183 136 200 214 232 256 248 246 270 220 194 198 210 227 235 238 241 242 244 241 228 220
306 312 315 319 329 333 328 329 328 324 324 320 318 320 315 307 287 275 266 212 169 142 203 264 223 196 234 224 213 148 130 161 184 191 203 194 184 177 180 194 176 164 166 188 198 182 185 193 175 233 249 221 211 198 205 229 237 251 249 260 261 250 254 258 276 219 183 179 217 217 229 250 255 257 263 260 243 229 224 227 244 251 253 254 252 249 242 223
305 311 314 319 335 338 333 336 332 328 328 321 321 324 312 305 286 246 194 175 151 143 221 214 187 204 216 185 171 122 122 149 169 186 190 184 182 183 197 217 181 182 191 193 196 179 171 191 187 233 246 222 208 203 214 230 241 259 267 271 270 272 268 264 273 193 179 193 221 221 232 249 256 250 250 258 255 250 245 232 239 248 251 254 253 250 244 233
305 310 312 319 337 339 337 338 330 330 331 326 334 337 314 303 288 225 181 201 219 241 273 208 188 216 235 140 136 135 139 154 170 182 176 174 167 162 200 218 167 211 227 199 186 172 165 192 198 225 238 231 216 216 223 233 243 255 265 268 266 269 270 270 277 216 185 194 223 226 234 249 258 256 250 256 258 259 259 250 247 249 253 257 257 255 244 241
308 310 314 322 334 336 338 338 330 329 330 330 337 331 321 351 300 300 209 235 234 240 263 244 201 225 239 136 148 155 140 184 205 176 173 174 161 153 186 194 173 212 220 212 205 63 182 211 218 229 240 246 240 238 237 240 247 254 259 268 273 265 266 275 278 212 180 198 240 243 249 255 259 262 257 255 255 255 256 256 257 254 256 261 261 260 250 238
311 315 321 325 330 332 336 337 330 327 330 335 326 294 329 7 304 303 331 266 245 231 243 247 228 242 233 150 167 164 118 228 222 177 171 173 170 181 185 174 194 215 193 195 221 239 224 229 232 236 248 257 255 254 254 258 260 263 270 275 275 269 273 281 274 168 144 191 250 257 262 263 264 263 260 255 252 251 248 249 255 256 258 260 259 261 253 199
308 317 326 326 328 330 333 334 332 334 336 334 318 296 325 347 337 45 233 272 273 239 232 230 228 234 221 203 183 173 197 227 226 198 175 171 177 199 195 184 209 227 188 188 210 223 233 230 230 238 249 253 254 248 235 260 264 246 252 262 264 262 269 279 260 166 176 208 247 274 273 266 268 266 258 253 250 251 249 247 252 256 257 257 255 259 244 186
303 312 320 326 329 331 335 335 341 2 340 316 304 299 312 309 321 30 297 268 264 230 221 219 219 224 220 218 185 186 219 221 217 205 176 171 163 170 209 205 212 230 217 212 215 230 245 234 204 229 238 239 245 241 217 240 261 239 220 230 252 257 253 257 262 232 217 227 248 303 289 264 250 251 252 249 243 246 247 243 247 252 257 259 257 258 234 180
297 301 308 322 327 331 337 337 355 4 333 314 303 306 315 284 246 18 353 271 253 230 259 226 209 223 213 194 173 176 231 225 218 183 171 176 166 149 203 207 209 231 225 227 229 239 251 236 188 216 224 219 229 237 207 202 259 261 212 218 242 256 259 264 288 340 324 276 227 24 305 273 211 220 247 245 218 232 236 233 236 240 253 261 261 255 226 177
290 293 300 311 319 331 340 340 350 342 326 313 330 317 311 289 274 345 12 271 258 207 86 189 179 198 191 165 157 134 7 253 238 105 161 183 187 161 213 184 202 238 222 229 242 244 247 207 190 212 217 217 228 250 217 192 254 272 226 224 248 262 270 270 289 325 256 264 238 104 333 286 252 219 243 247 210 222 223 229 236 232 242 255 259 256 217 177
284 286 290 297 308 327 341 327 328 336 326 328 342 324 307 302 294 302 330 283 268 161 125 214 202 172 166 149 152 133 259 244 74 90 156 186 199 165 231 199 192 232 199 221 260 240 189 159 161 206 216 221 228 250 223 189 232 264 231 229 264 268 268 257 259 237 229 292 278 150 145 277 279 243 216 223 214 228 230 229 244 241 234 240 252 259 217 181
278 279 281 283 288 299 307 300 313 328 301 312 328 319 314 315 299 304 286 272 267 121 120 218 66 84 98 340 225 153 244 212 109 22 26 27 198 149 225 222 220 219 166 170 237 262 133 175 198 198 199 220 223 240 208 178 210 247 190 113 102 120 253 128 226 246 276 322 279 184 148 258 281 265 184 205 205 222 232 227 240 247 241 233 238 251 227 188
273 273 273 271 272 279 286 285 283 280 288 304 311 312 325 324 303 343 248 257 237 107 104 135 111 93 101 14 274 213 13 27 130 267 28 239 228 176 233 235 250 250 224 208 232 265 81 187 221 189 184 221 214 119 42 176 208 219 150 89 83 101 41 92 230 258 336 286 245 194 155 226 279 275 156 190 204 213 227 226 232 241 248 241 226 235 224 187
268 267 265 260 260 267 278 272 260 272 296 303 299 313 331 314 301 211 240 252 334 85 86 101 131 149 138 135 230 228 219 176 93 129 178 202 185 334 287 284 289 270 272 262 259 265 209 105 331 214 194 204 131 85 26 63 153 159 138 80 41 276 10 65 238 101 328 270 241 193 181 195 272 284 139 176 198 197 209 215 227 240 250 250 232 222 208 177
265 263 257 248 245 243 259 266 248 263 294 298 303 331 331 293 113 228 239 251 356 171 130 162 173 139 156 177 193 199 203 205 144 152 185 188 150 189 256 252 99 332 302 282 274 263 238 172 200 266 208 127 106 84 1 27 95 124 127 124 332 299 12 31 310 93 230 267 231 181 185 191 234 258 143 204 205 193 201 196 209 228 240 247 237 213 188 165
265 263 256 248 243 232 224 230 211 221 286 307 338 359 293 233 221 237 237 60 33 203 155 172 177 159 188 209 208 174 179 199 173 173 181 160 170 194 206 203 159 137 264 243 249 250 244 231 203 206 313 166 148 111 11 351 295 149 139 139 155 279 312 308 252 141 225 257 225 178 181 200 238 246 215 240 220 195 206 200 197 210 227 239 221 186 160 149
267 266 260 252 244 232 225 227 218 226 288 22 60 18 339 218 233 232 212 189 241 195 85 130 169 180 191 207 220 172 180 208 166 180 191 161 189 215 213 221 202 216 248 218 237 235 263 263 186 163 287 189 165 179 215 260 194 178 161 149 165 209 249 248 242 242 244 258 253 183 173 215 266 248 203 222 225 203 203 207 201 200 220 233 200 165 152 151
270 266 260 255 248 239 229 223 224 232 222 121 99 62 56 235 246 225 162 212 234 222 22 70 158 187 200 212 196 155 185 234 158 173 193 162 191 225 211 221 219 233 267 231 275 198 244 287 184 165 212 178 181 206 208 157 164 196 177 158 193 199 217 241 233 246 261 281 276 175 163 222 272 208 190 207 222 216 207 206 206 216 224 214 159 151 159 166
270 264 259 252 243 237 226 215 218 214 179 131 105 116 181 231 249 279 243 241 246 221 153 42 155 187 224 236 202 174 202 223 164 167 196 186 199 216 202 201 202 204 178 202 255 176 230 270 197 165 171 165 182 216 200 123 137 217 157 157 231 205 189 244 254 250 275 317 273 213 209 241 268 274 229 215 225 222 218 210 204 226 232 189 157 175 183 184
266 262 256 243 234 231 221 214 209 191 164 135 123 172 208 229 222 214 254 259 254 219 128 231 204 193 235 229 200 210 215 224 178 166 199 215 225 226 208 187 190 194 188 190 224 182 228 274 177 146 355 168 181 226 191 165 203 187 140 193 228 174 164 221 266 272 289 283 270 255 253 272 300 285 244 219 222 213 208 209 204 223 230 203 194 207 207 202
266 259 249 242 237 229 219 215 199 176 159 148 175 200 219 233 228 229 281 346 313 301 161 220 207 183 224 236 208 202 185 191 190 174 187 206 226 223 212 211 186 191 201 199 212 233 228 265 211 161 268 263 289 323 274 247 138 133 178 216 202 29 101 174 258 299 267 257 271 274 271 282 290 283 263 194 212 207 197 201 208 221 222 206 210 222 222 208
285 255 248 251 244 228 217 208 187 164 147 161 204 224 223 221 224 229 262 295 294 280 247 236 218 192 218 243 230 184 170 190 183 174 205 205 217 199 191 214 193 190 207 203 208 252 214 251 261 158 67 326 356 333 280 315 88 134 225 262 106 117 246 167 175 228 243 249 269 277 279 278 260 263 297 242 203 201 200 201 208 217 212 201 215 232 234 203
310 253 257 264 247 227 211 196 174 151 149 179 208 229 221 231 248 244 269 284 287 270 250 246 236 221 234 249 257 190 176 197 186 178 206 206 224 195 172 198 204 195 204 195 199 237 173 216 257 345 11 348 22 244 200 226 311 79 358 347 77 169 178 180 191 200 224 240 264 278 282 278 256 247 264 237 194 190 199 202 210 215 207 202 212 229 233 205
295 240 266 329 209 204 194 179 158 144 184 190 215 230 237 274 280 260 256 263 273 267 257 263 257 250 253 253 261 253 209 206 200 202 211 194 220 223 176 183 198 201 205 195 200 220 169 212 233 324 353 267 190 205 187 190 200 180 236 255 224 204 152 233 247 221 217 229 245 258 269 271 262 159 218 205 179 189 196 198 215 220 213 210 208 220 225 213
192 245 259 160 176 176 167 156 150 171 196 242 242 242 260 298 312 288 276 278 280 269 7 293 277 274 285 270 260 261 240 224 216 213 222 212 232 255 179 182 190 177 183 188 205 211 186 212 220 212 254 235 229 211 199 208 206 186 201 211 210 206 196 243 249 230 216 227 235 238 257 264 261 76 80 160 170 194 190 181 197 203 216 224 216 217 218 213
219 252 175 165 173 163 148 149 210 164 200 241 235 251 274 289 289 283 286 293 286 276 46 301 268 263 286 283 276 292 309 289 257 231 245 240 236 255 249 208 211 160 155 183 215 208 161 157 221 231 234 244 263 240 195 222 239 237 226 217 215 206 195 222 237 236 236 227 231 240 252 257 259 67 68 134 149 166 166 165 191 203 218 229 225 224 223 222
223 241 145 171 174 161 143 218 201 187 229 234 253 261 257 257 262 263 262 259 259 255 243 258 258 251 255 264 279 307 331 314 287 269 281 296 277 296 343 338 329 350 210 227 250 219 115 118 215 241 268 300 300 293 296 33 263 266 258 232 225 219 217 232 237 242 246 225 228 245 247 257 266 198 166 196 189 210 227 231 242 244 240 233 230 232 230 230
246 263 144 180 179 170 166 222 202 218 229 240 258 247 246 254 241 243 249 236 221 216 230 235 231 233 239 244 256 260 244 246 263 261 270 287 280 296 327 335 340 339 288 301 359 262 280 282 224 245 268 289 295 284 278 286 139 217 240 234 238 238 238 251 256 243 245 235 236 247 248 257 267 245 204 230 242 253 264 258 235 237 246 238 234 240 238 233
265 250 183 190 190 190 209 217 215 226 216 224 237 234 239 247 224 228 238 238 228 214 222 237 228 229 233 227 242 240 222 222 245 253 247 261 270 281 293 301 315 299 272 319 23 178 241 264 229 226 239 238 246 252 250 235 152 204 237 234 240 241 237 246 252 241 244 237 235 246 255 259 268 274 267 263 264 269 278 282 270 248 250 253 247 243 239 234
256 235 207 186 201 219 245 221 228 231 214 220 230 226 231 236 228 225 231 239 238 228 232 236 200 220 229 221 239 249 237 231 237 241 228 235 253 259 254 259 265 256 259 299 59 139 186 216 210 214 229 232 235 246 257 261 245 245 247 237 235 239 238 241 244 242 248 249 242 245 254 260 266 273 274 274 274 276 280 287 288 275 268 267 253 239 237 233
267 255 227 193 209 225 234 236 229 218 209 214 210 199 222 235 243 228 216 223 229 228 237 236 214 220 223 220 236 246 243 240 236 233 235 232 239 248 236 227 238 249 249 217 172 150 132 212 217 220 229 234 236 244 252 257 254 249 249 247 241 236 234 236 242 243 245 253 252 245 252 261 259 260 267 272 275 278 282 284 284 281 279 274 249 236 242 237
261 257 254 302 271 214 223 233 231 235 233 220 208 208 224 232 234 223 215 226 227 218 224 231 217 220 225 228 234 238 236 242 239 231 234 236 240 250 248 235 239 246 247 238 197 169 198 229 222 223 231 233 234 239 243 248 251 248 247 249 248 246 239 234 239 239 236 242 252 250 249 254 254 252 257 265 273 281 285 283 283 285 285 279 259 242 246 241
287 272 294 334 299 249 269 285 261 253 247 239 233 227 232 236 233 227 220 227 231 212 213 234 226 216 223 227 231 237 231 235 242 232 223 225 226 233 246 248 247 241 234 235 222 186 214 229 217 225 236 234 233 237 240 244 250 252 250 247 246 250 247 237 236 238 239 244 250 250 249 251 255 255 255 261 272 280 284 283 282 281 280 279 271 257 248 239
303 313 312 326 313 288 291 295 287 273 254 246 243 232 240 250 250 247 234 227 239 215 204 227 234 225 226 226 227 233 228 229 242 241 230 229 221 213 227 234 240 236 216 220 226 198 211 223 215 222 240 238 233 236 238 239 243 248 252 252 250 251 249 243 240 240 243 247 247 248 252 255 256 256 260 268 274 277 277 275 275 274 273 275 276 267 245 231
304 348 334 307 301 286 278 273 269 275 262 233 230 234 240 247 250 258 255 241 248 249 230 237 245 241 240 238 236 239 237 234 241 243 241 244 236 221 221 217 221 225 193 196 213 191 201 226 223 226 246 239 226 232 237 237 239 243 249 256 253 247 245 245 245 243 242 245 248 249 251 252 252 254 263 270 268 266 266 266 268 270 270 271 273 271 254 238
298 324 332 298 291 267 268 281 278 274 267 245 248 255 255 258 256 256 262 251 242 249 250 252 258 260 255 251 247 247 250 248 250 253 255 260 258 248 244 232 222 223 194 188 211 195 196 220 219 221 244 244 225 231 238 238 240 238 232 237 241 244 247 249 250 249 246 243 245 245 244 247 253 257 262 264 262 259 257 258 262 266 268 269 268 270 265 249
Height
825 825 824 824 823 823 823 822 822 821 820 819 818 818 817 816 815 814 813 812 811 810 809 808 807 807 806 805 805 805 805 804 804 803 802 799 799 799 799 800 800 800 801 801 802 802 802 803 802 802 804 804 804 803 804 803 803 809 815 820 820 812 804 795 790 789 789 790 791 791 788 790 792 790 788 788 790 790 791 789 786 785 784 786 788 789 790 792
826 825 824 824 823 823 823 822 821 821 820 820 819 818 817 816 815 814 813 812 811 810 809 808 807 807 806 806 805 805 804 803 803 801 798 797 798 798 798 799 799 800 800 801 801 802 802 801 800 800 803 805 803 802 805 803 804 811 812 815 813 803 794 787 785 784 785 788 788 787 787 789 789 788 789 791 792 790 792 789 786 787 785 786 788 789 790 792
826 825 825 824 823 823 823 822 821 821 820 820 819 818 817 817 816 815 814 812 811 810 809 808 807 806 806 805 804 805 804 803 803 798 794 794 796 796 797 798 798 799 800 801 801 801 801 800 799 800 803 805 803 803 806 804 805 807 809 816 807 794 790 783 781 782 783 785 787 787 785 787 786 784 789 792 790 789 789 786 785 786 783 784 787 787 789 791
826 825 825 824 823 823 822 821 821 820 820 820 819 818 818 816 816 815 814 813 811 810 809 808 807 806 806 805 805 805 803 805 802 793 791 792 793 794 796 797 797 799 799 800 800 800 800 799 799 799 803 806 802 801 805 804 804 802 805 811 799 789 791 785 781 782 782 785 788 788 787 788 785 783 787 790 792 788 782 779 778 778 776 778 783 785 787 788
826 825 825 824 823 822 822 821 820 820 820 819 818 818 817 816 815 814 814 813 811 810 809 808 807 806 806 805 805 804 806 811 800 789 792 792 792 794 795 796 797 798 798 800 800 800 800 799 799 800 804 807 803 802 803 798 798 802 800 799 792 789 791 785 782 784 784 786 789 789 789 787 783 783 784 787 790 782 774 771 769 769 769 771 777 780 783 785
826 825 824 824 823 822 821 821 820 819 819 818 818 817 817 816 815 814 813 812 811 810 809 808 806 806 805 805 805 804 809 810 795 790 793 791 793 794 795 796 796 798 798 799 799 799 800 798 800 803 805 806 804 802 798 792 795 803 799 792 789 787 788 783 782 786 786 788 789 789 787 783 784 785 782 783 780 770 766 766 764 765 764 764 769 775 779 780
825 824 824 823 822 822 821 820 819 818 818 817 817 816 816 815 814 813 812 812 811 809 808 807 806 805 805 805 805 805 807 803 791 791 793 792 795 794 795 796 796 798 797 799 799 799 799 799 801 802 804 804 802 798 793 791 795 802 799 792 788 785 785 782 782 785 786 788 786 785 785 785 788 786 781 777 769 764 765 764 763 763 762 764 768 772 774 775
825 824 823 823 822 821 820 819 818 818 817 816 816 815 815 814 813 812 811 811 809 809 808 806 806 805 805 805 805 806 805 798 791 792 792 792 794 794 796 796 796 797 797 798 798 798 799 800 800 799 803 803 798 796 794 795 798 799 797 791 787 785 784 781 782 785 785 786 784 784 786 786 784 783 781 770 762 763 763 762 763 762 763 765 767 770 771 771
824 824 823 822 821 820 819 818 818 817 816 815 815 814 814 813 812 811 811 810 808 808 806 805 805 804 805 804 805 809 802 793 791 792 792 793 793 794 795 795 796 796 796 798 796 797 799 800 799 797 803 802 798 798 795 800 801 794 793 790 788 787 783 781 781 782 784 783 784 786 786 784 781 783 779 763 758 761 760 760 761 762 764 764 765 766 767 768
823 822 822 821 820 819 818 818 817 815 815 814 813 812 812 812 811 810 809 809 808 807 805 805 804 804 805 803 807 810 797 790 792 791 792 793 793 794 794 794 795 795 796 796 795 796 796 797 796 795 800 800 798 798 795 799 798 791 792 791 790 789 784 782 781 779 781 781 782 786 786 782 779 784 777 758 754 757 758 760 758 760 762 761 762 762 763 764
823 822 821 820 819 818 817 817 816 814 814 812 811 811 810 810 809 809 808 807 806 806 804 803 803 804 804 804 808 805 793 790 792 790 792 792 792 793 793 794 794 794 795 794 794 794 793 794 793 795 800 800 799 797 794 794 793 791 793 793 790 788 784 780 779 777 778 780 777 782 786 782 781 783 771 755 754 754 756 758 757 758 758 758 759 758 760 759
822 821 820 819 819 817 816 815 814 813 812 811 810 809 809 808 808 807 806 806 805 804 804 803 803 803 803 804 804 797 790 791 791 790 791 791 792 792 792 793 793 793 794 793 793 792 793 793 793 798 799 797 799 798 795 792 792 792 794 798 791 786 783 776 774 773 776 778 774 781 790 786 780 775 761 753 754 755 756 756 755 755 754 755 755 755 756 754
821 820 820 819 818 816 815 814 813 812 810 809 808 807 807 806 806 805 804 804 803 803 802 802 802 802 804 803 795 790 790 790 790 790 790 790 791 791 792 792 792 793 793 793 793 791 793 793 793 796 794 796 800 797 794 792 793 794 794 798 795 793 786 770 766 767 773 777 772 782 794 782 768 762 755 751 751 754 757 755 754 753 752 752 752 752 751 750
821 820 819 818 817 816 814 813 812 810 809 808 806 805 805 804 804 803 802 802 801 801 801 801 802 802 804 799 789 788 789 788 789 789 789 790 790 791 791 791 792 792 792 792 792 792 792 792 793 794 793 795 796 794 795 794 793 795 796 796 796 802 790 765 762 764 773 779 771 782 794 778 761 754 750 747 747 752 755 753 752 751 750 750 749 748 747 745
820 819 818 817 816 815 813 812 811 809 808 806 804 803 802 802 802 801 801 800 799 800 799 800 800 801 803 796 786 787 788 787 788 787 788 789 790 791 790 791 792 791 792 792 792 792 792 792 794 796 795 793 794 798 801 798 792 792 802 802 794 800 789 766 763 763 769 778 773 782 791 777 762 752 744 742 744 749 751 751 750 749 747 747 745 743 742 741
819 818 817 816 815 814 812 811 810 808 806 804 803 802 801 800 799 798 798 797 798 798 798 799 798 800 803 795 787 787 787 786 786 786 787 788 789 790 790 791 791 791 792 791 792 792 792 793 794 795 795 795 798 802 805 806 798 790 798 803 794 793 787 772 767 763 764 775 777 778 779 768 758 749 742 741 743 746 749 748 747 745 744 742 740 738 738 738
818 818 816 815 814 813 811 810 809 807 805 803 801 799 798 798 796 796 796 796 797 796 796 797 796 798 798 790 787 786 783 784 785 785 786 787 788 788 789 790 790 791 791 791 792 792 792 794 795 795 794 796 797 800 811 816 807 793 790 794 789 785 784 777 771 765 763 771 776 776 775 765 753 747 744 742 743 745 747 746 744 742 740 737 735 733 733 734
818 817 816 815 813 812 810 809 808 806 804 802 799 797 796 795 794 794 795 795 796 796 798 797 797 804 798 785 784 783 780 782 783 784 785 786 787 788 788 789 789 790 791 793 792 792 794 792 793 797 796 797 796 800 811 809 798 792 787 788 785 779 779 775 768 765 766 770 774 776 777 766 754 750 747 743 742 744 744 743 741 738 736 733 730 729 729 729
817 816 815 814 813 812 810 808 807 805 803 800 798 796 794 792 793 792 794 795 794 795 796 793 793 799 792 779 778 779 779 781 782 783 784 785 787 787 788 788 788 790 793 795 793 791 793 794 797 802 800 794 792 793 796 790 783 784 781 782 783 781 778 768 761 762 765 771 774 772 770 761 753 751 747 742 740 740 739 739 738 735 733 729 726 725 724 723
815 815 814 813 812 811 809 808 806 805 803 800 797 796 793 793 793 792 793 793 788 784 782 781 781 781 778 774 775 778 779 780 781 782 782 784 785 787 788 788 788 792 793 794 793 788 789 798 802 798 789 783 781 780 779 778 776 777 777 778 778 780 776 762 758 759 760 768 769 762 761 756 748 746 743 740 738 736 736 736 735 732 729 724 721 720 719 717
814 814 813 812 812 811 809 808 806 804 803 801 800 799 796 796 796 796 794 788 781 777 776 774 774 774 772 772 773 774 776 779 779 779 781 781 783 787 788 787 792 796 792 789 789 787 790 798 795 783 775 774 774 771 771 773 773 773 775 778 778 778 772 760 757 758 758 766 765 757 759 755 746 743 739 737 737 734 733 732 729 726 724 719 716 715 713 713
814 813 812 812 811 810 809 807 805 804 803 802 802 800 798 799 800 799 797 790 778 774 774 772 772 772 769 770 770 771 775 777 777 777 778 780 782 785 783 785 791 791 786 787 791 794 796 794 783 773 770 771 770 767 769 771 772 775 776 780 783 776 769 761 757 760 763 767 766 759 760 755 744 740 737 734 732 729 725 724 722 721 720 716 712 711 709 711
813 812 812 811 810 810 808 806 805 803 803 802 802 801 800 800 800 799 800 796 782 772 771 770 770 770 769 769 768 770 774 773 773 773 773 776 780 781 781 783 786 783 783 787 790 795 794 783 772 769 769 770 770 768 770 773 774 776 778 784 783 773 773 771 762 764 767 765 763 761 762 757 745 739 735 729 724 721 719 718 717 716 714 710 707 707 707 709
811 811 811 810 810 809 807 806 804 804 804 803 802 802 801 801 800 799 799 793 780 768 764 763 764 764 764 764 764 767 769 766 765 767 767 771 776 779 778 777 781 782 781 779 779 782 776 767 764 766 766 767 770 769 770 778 777 773 775 780 776 768 769 768 760 761 764 762 763 765 763 751 740 737 730 721 718 716 716 716 715 713 708 704 703 703 704 706
810 811 810 809 810 808 807 806 804 805 805 803 803 802 801 801 800 800 799 792 778 767 763 760 760 759 756 759 761 762 765 762 759 761 762 765 770 774 774 772 776 781 777 773 774 773 765 760 761 764 766 765 769 770 771 776 777 773 770 768 765 763 763 762 760 764 770 770 766 766 765 741 723 727 723 714 715 714 714 714 713 711 705 701 701 700 700 703
810 810 809 810 809 808 807 805 805 806 803 804 804 802 802 801 800 800 800 796 781 767 766 763 758 756 754 757 759 760 767 764 758 758 761 763 764 767 772 771 770 773 770 769 769 763 757 757 758 762 767 767 771 774 769 771 778 777 769 762 761 762 764 765 766 772 776 772 763 764 772 751 720 720 719 711 714 713 712 712 709 709 705 700 699 696 697 700
809 809 809 809 809 809 808 806 807 805 804 805 803 803 804 801 802 801 799 800 779 757 761 763 758 755 753 756 756 761 770 764 759 762 761 764 763 763 770 769 767 768 764 768 773 760 753 760 763 763 767 770 775 774 765 767 778 776 768 766 764 764 767 767 769 775 773 769 766 761 773 766 729 715 713 707 712 713 710 711 706 703 702 699 696 692 693 697
807 808 808 809 809 809 809 808 807 805 806 805 803 805 803 801 805 800 803 807 773 745 754 759 756 755 754 758 756 758 765 760 760 766 763 764 765 764 769 766 763 765 760 769 777 761 752 762 763 762 770 773 770 766 760 763 770 770 768 767 766 766 769 769 770 775 772 774 777 764 769 771 730 705 708 705 711 715 708 706 702 697 695 694 693 690 690 693
806 806 807 808 808 808 809 808 807 806 805 804 804 805 802 804 805 799 810 806 760 738 751 753 755 757 757 762 761 758 761 760 761 766 765 766 765 766 769 765 762 764 761 764 767 759 756 764 761 760 769 767 761 765 765 762 764 768 769 767 768 769 769 771 773 776 778 778 777 766 768 771 729 697 708 713 713 714 705 700 697 692 689 688 689 687 687 690
804 804 806 807 807 808 808 806 805 805 804 804 805 804 803 805 803 806 815 791 750 744 754 754 755 756 758 765 765 761 761 762 764 767 767 766 765 767 767 764 764 767 766 765 763 759 760 766 766 762 761 760 762 771 773 769 766 769 771 769 772 773 771 776 773 775 783 772 760 757 758 766 741 704 705 711 704 702 699 697 694 690 687 685 685 684 684 687
801 802 804 804 805 806 806 805 804 803 805 805 804 804 805 804 805 811 801 766 748 752 754 755 756 753 757 760 757 759 761 761 763 765 767 767 769 771 770 767 770 774 776 774 767 761 763 768 766 759 758 760 765 770 773 774 771 769 770 771 775 775 774 780 779 782 788 763 740 740 745 759 747 711 701 699 690 690 691 691 689 686 685 682 681 681 682 686
798 799 801 801 802 803 804 803 802 803 804 804 804 805 805 808 807 797 774 753 752 754 747 750 754 752 755 753 750 755 759 758 760 761 762 767 771 770 769 766 768 774 775 773 768 763 762 761 758 758 759 758 760 767 775 777 774 771 771 774 781 782 779 783 783 781 779 754 730 730 741 746 726 699 696 693 686 686 685 683 681 679 681 678 677 680 682 686
795 796 797 798 798 799 801 801 801 803 804 804 807 808 810 815 797 768 758 757 753 747 741 742 747 749 752 753 752 753 755 755 756 759 757 762 768 766 764 761 759 762 762 762 765 765 760 752 753 761 758 753 754 762 768 768 770 772 768 772 780 781 782 783 777 769 760 743 728 730 740 734 710 691 689 685 680 680 677 676 675 673 675 675 675 680 682 686
791 792 793 793 793 794 797 800 800 802 804 804 807 813 821 816 780 749 753 755 744 741 742 742 746 749 750 751 749 747 754 754 751 757 758 760 767 766 761 759 757 757 758 762 762 762 763 751 746 752 747 745 747 745 745 749 761 766 756 759 765 763 767 769 762 756 748 738 732 736 738 723 703 687 676 672 672 672 671 670 669 669 670 673 677 680 683 686
788 788 789 788 789 790 793 797 797 800 804 804 806 816 821 806 776 760 759 750 741 742 745 746 748 754 754 750 746 741 745 748 748 754 758 758 761 758 752 752 754 755 760 767 758 754 760 745 731 738 737 738 742 735 734 742 755 758 751 756 759 749 748 752 747 740 744 747 739 734 727 703 685 674 666 670 670 668 672 669 668 670 668 672 677 677 681 685
784 784 785 784 782 785 789 791 793 797 800 803 811 817 807 784 767 763 753 743 742 743 748 752 750 756 757 749 748 744 740 744 748 753 756 755 751 746 742 741 744 747 750 755 750 746 753 742 730 739 740 739 743 737 734 738 744 751 754 754 748 738 739 748 749 738 746 756 734 716 713 696 684 673 659 665 670 667 672 670 668 668 666 670 673 673 677 681
781 781 781 778 777 781 784 786 789 794 797 801 806 802 787 770 758 752 744 741 744 742 748 754 748 750 753 747 746 746 745 745 747 751 752 751 743 735 736 733 731 736 734 737 741 737 740 737 732 739 742 742 748 744 739 738 738 746 752 745 738 740 741 747 755 750 752 758 731 709 710 704 699 684 659 662 671 668 668 668 665 665 665 668 670 670 673 676
778 779 776 772 773 777 781 784 786 790 795 800 799 786 774 766 756 750 748 745 745 744 749 752 744 739 742 743 739 739 746 746 746 750 748 743 734 721 725 728 723 725 723 728 739 735 734 739 737 742 747 745 748 748 743 742 741 742 744 741 740 748 748 747 756 757 756 757 734 713 711 703 694 682 665 667 672 667 665 663 662 663 664 667 667 667 670 674
778 778 774 767 768 772 776 781 784 789 795 798 797 782 767 760 754 751 751 748 748 751 751 747 740 737 735 736 734 734 742 741 740 746 742 736 728 712 712 719 717 719 718 722 733 730 731 740 739 745 752 748 747 749 744 743 745 746 747 746 743 745 746 744 745 744 744 747 737 724 717 696 672 664 661 662 664 663 663 661 661 662 662 664 665 665 668 672
777 777 771 765 767 769 773 779 784 790 792 788 785 776 763 758 756 751 750 751 751 752 751 744 740 739 734 732 731 730 735 735 734 738 734 726 721 711 707 710 713 717 715 718 725 726 731 735 734 745 755 749 742 741 738 735 739 746 749 748 746 743 743 743 739 731 731 737 736 733 725 690 657 651 651 652 658 659 659 660 662 662 661 662 663 663 665 668
776 776 769 764 767 769 774 783 786 788 789 783 776 771 765 763 761 755 752 753 752 750 752 751 747 745 740 737 735 729 729 731 728 731 729 721 719 716 709 705 708 714 717 723 726 725 731 732 730 739 745 739 730 726 726 724 724 732 737 736 736 737 740 745 740 725 722 727 724 726 724 688 653 648 648 649 656 655 655 659 659 660 661 661 661 661 661 663
775 773 767 765 768 768 773 782 783 783 788 782 772 770 769 766 764 761 757 756 756 753 753 753 752 751 747 744 741 735 735 735 731 728 725 719 718 716 709 704 704 708 715 723 722 717 722 729 732 731 725 723 721 717 720 720 718 724 726 723 725 728 731 735 732 721 719 721 715 718 719 684 650 649 652 652 654 653 654 657 657 659 660 658 659 659 658 659
771 769 766 766 768 768 772 778 779 780 781 776 769 768 768 766 763 760 758 758 757 754 753 753 752 750 747 745 746 745 747 749 743 735 733 729 722 716 712 711 712 713 714 717 718 716 720 726 731 730 723 719 717 715 717 721 723 725 724 721 721 722 720 719 717 715 715 716 714 717 713 682 653 651 653 652 653 653 653 655 656 657 657 657 657 655 656 657
768 766 766 767 767 766 768 769 771 774 775 773 770 768 766 764 762 759 756 754 753 753 753 750 748 747 746 747 749 749 753 757 752 743 742 741 731 721 719 719 721 723 721 720 719 721 726 728 729 735 739 736 732 728 723 723 727 726 721 718 717 715 716 715 714 714 713 711 708 707 700 679 657 652 653 652 652 652 652 652 654 655 655 656 656 654 655 654
768 766 764 765 764 763 760 757 758 762 766 768 767 765 763 760 756 753 750 747 746 749 749 746 743 744 744 746 748 747 747 752 752 746 745 745 736 727 725 725 726 727 724 722 721 722 730 734 736 744 750 747 742 732 721 720 725 725 720 716 714 713 715 716 716 718 716 708 700 695 689 676 661 654 654 652 651 652 650 648 651 653 653 654 654 653 652 650
767 764 761 762 763 759 755 753 753 754 755 760 761 758 758 755 747 744 745 744 742 742 742 741 741 743 744 745 747 746 743 744 747 747 748 748 741 731 726 727 728 726 722 724 724 724 731 736 739 744 744 738 732 722 713 715 720 721 717 713 713 713 712 714 716 715 711 704 696 689 684 679 672 665 657 650 649 652 650 647 648 649 649 649 650 649 647 646
767 761 755 756 759 757 754 753 753 752 749 751 751 747 747 748 745 742 740 739 737 736 737 739 739 741 742 743 745 745 742 741 741 743 745 744 738 730 726 726 727 723 722 724 724 725 733 736 735 738 736 730 725 718 713 713 714 714 712 710 710 711 710 713 714 707 704 702 692 683 682 681 677 670 659 649 647 648 649 647 644 642 643 645 645 644 643 643
766 760 751 751 754 752 750 749 750 750 749 747 743 737 736 739 741 742 738 732 731 732 736 737 736 735 735 736 738 738 736 737 736 735 735 734 732 729 726 725 723 720 722 724 723 723 730 731 730 732 732 726 722 717 712 708 705 703 704 704 703 703 705 708 704 694 692 691 684 680 679 674 667 663 657 649 645 645 645 642 638 637 638 638 640 641 640 640
765 760 754 753 754 750 746 746 747 748 749 749 745 739 736 734 731 731 730 730 730 729 731 733 729 728 728 728 729 729 729 729 727 723 724 724 725 726 726 722 717 715 718 721 721 721 722 724 725 727 726 721 718 715 709 706 703 700 699 698 697 696 696 695 689 682 681 680 676 674 671 663 658 655 650 645 644 643 641 637 634 634 633 632 633 636 636 637
767 765 762 761 759 754 750 749 750 750 749 749 748 743 740 738 733 728 726 726 727 725 725 725 720 718 719 719 720 719 717 716 713 709 710 713 717 720 720 714 708 710 715 717 717 718 718 714 711 716 719 716 712 711 708 706 704 699 695 695 696 695 689 682 678 678 679 677 671 668 669 663 653 646 644 644 644 644 641 636 631 629 629 628 628 630 633 634
768 768 768 769 765 757 752 750 749 750 749 747 745 740 738 738 736 733 727 722 723 724 722 720 718 715 713 714 714 712 708 706 704 700 698 700 704 707 706 704 702 706 714 716 713 713 715 709 704 709 713 707 702 704 703 701 701 701 699 698 695 689 679 672 669 670 672 671 668 668 669 659 645 641 645 646 644 643 640 633 627 624 625 625 623 625 628 629
768 767 767 770 767 758 753 752 752 751 747 741 739 737 735 733 731 732 730 721 718 719 718 718 719 718 716 714 711 707 703 701 698 697 696 695 695 694 694 697 698 700 707 711 709 710 711 708 705 706 704 697 693 694 695 698 703 702 697 690 681 674 670 668 666 663 660 659 661 660 653 642 638 642 646 643 639 637 632 626 623 622 621 619 618 619 621 621